This is the latest recevied weather packets stored in our database for station/object W5CRT. If no packets are shown the sender has not sent any weather packets the latest 10 day(s).
| Time | Temp. | Humidity | Pressure | Rain* | Wind** | Luminosity | Snow |
|---|---|---|---|---|---|---|---|
| 1777729510 | 15.56° C | 59% | 1019.7 hPa | 0 mm | - | 290 W/m² | - |
| 1777729207 | 15.56° C | 61% | 1019.4 hPa | 0 mm | - | 270 W/m² | - |
| 1777728903 | 15.56° C | 59% | 1019.3 hPa | 0 mm | - | 250 W/m² | - |
| 1777728600 | 15.56° C | 63% | 1019.2 hPa | 0 mm | - | 226 W/m² | - |
| 1777728298 | 15° C | 65% | 1019.2 hPa | 0 mm | - | 205 W/m² | - |
| 1777727995 | 15° C | 67% | 1019.1 hPa | 0 mm | - | 188 W/m² | - |
| 1777727691 | 14.44° C | 66% | 1019.2 hPa | 0 mm | - | 170 W/m² | - |
| 1777727388 | 14.44° C | 68% | 1019.3 hPa | 0 mm | - | 154 W/m² | - |
| 1777727086 | 14.44° C | 69% | 1019.1 hPa | 0 mm | - | 142 W/m² | - |
| 1777726784 | 14.44° C | 70% | 1018.9 hPa | 0 mm | - | 128 W/m² | - |
| 1777726480 | 14.44° C | 71% | 1018.8 hPa | 0 mm | - | 106 W/m² | - |
| 1777726177 | 13.89° C | 71% | 1018.8 hPa | 0 mm | - | 102 W/m² | - |
| 1777725873 | 13.33° C | 73% | 1018.8 hPa | 0 mm | - | 86 W/m² | - |
| 1777725571 | 13.33° C | 75% | 1018.7 hPa | 0 mm | - | 75 W/m² | - |
| 1777725268 | 13.33° C | 77% | 1018.7 hPa | 0 mm | - | 67 W/m² | - |
| 1777724966 | 13.33° C | 78% | 1018.6 hPa | 0 mm | - | 60 W/m² | - |
| 1777724662 | 13.33° C | 79% | 1018.6 hPa | 0 mm | - | 53 W/m² | - |
| 1777724360 | 13.33° C | 79% | 1018.5 hPa | 0 mm | - | 47 W/m² | - |
| 1777724057 | 13.33° C | 79% | 1018.5 hPa | 0 mm | - | 40 W/m² | - |
| 1777723755 | 12.78° C | 81% | 1018.4 hPa | 0 mm | - | 34 W/m² | - |
| 1777723450 | 12.22° C | 82% | 1018.1 hPa | 0 mm | - | 28 W/m² | - |
| 1777723148 | 12.22° C | 84% | 1018.2 hPa | 0 mm | - | 23 W/m² | - |
| 1777722845 | 11.67° C | 85% | 1018.1 hPa | 0 mm | - | 17 W/m² | - |
| 1777722541 | 11.67° C | 85% | 1018 hPa | 0 mm | - | 12 W/m² | - |
| 1777722238 | 12.22° C | 85% | 1017.9 hPa | 0 mm | - | 8 W/m² | - |
* Rain latest hour (hover to see other rain measurements)
** Current wind speed in m/s (hover to see current wind gust speed)